This is the latest recevied weather packets stored in our database for station/object HS5XHC-1. If no packets are shown the sender has not sent any weather packets the latest 10 day(s).
| Time | Temp. | Humidity | Pressure | Rain* | Wind** | Luminosity | Snow |
|---|---|---|---|---|---|---|---|
| 1777309255 | 27.78° C | 51% | 966 hPa | - | - | 0 W/m² | - |
| 1777308631 | 28.33° C | 51% | 966 hPa | - | - | 0 W/m² | - |
| 1777308007 | 28.33° C | 52% | 966 hPa | - | - | 0 W/m² | - |
| 1777307383 | 27.78° C | 53% | 966 hPa | - | - | 0 W/m² | - |
| 1777306759 | 27.22° C | 53% | 965 hPa | - | - | 0 W/m² | - |
| 1777306135 | 27.78° C | 52% | 964 hPa | - | - | 0 W/m² | - |
| 1777305511 | 26.67° C | 57% | 965 hPa | - | - | 0 W/m² | - |
| 1777304887 | 25.56° C | 66% | 968 hPa | - | - | 0 W/m² | - |
| 1777304263 | 26.67° C | 58% | 967 hPa | - | - | 0 W/m² | - |
| 1777303639 | 26.67° C | 57% | 967 hPa | - | - | 0 W/m² | - |
| 1777303025 | 28.89° C | 45% | 965 hPa | - | - | 0 W/m² | - |
| 1777302391 | 28.89° C | 44% | 965 hPa | - | - | 0 W/m² | - |
| 1777301767 | 28.89° C | 43% | 964 hPa | - | - | 0 W/m² | - |
| 1777301143 | 31.11° C | 39% | 964 hPa | - | - | 0 W/m² | - |
| 1777300519 | 31.11° C | 39% | 963 hPa | - | - | 0 W/m² | - |
| 1777299895 | 31.11° C | 39% | 963 hPa | - | - | 0 W/m² | - |
| 1777299271 | 31.11° C | 39% | 963 hPa | - | - | 0 W/m² | - |
| 1777298647 | 31.11° C | 38% | 963 hPa | - | - | 0 W/m² | - |
| 1777298023 | 31.11° C | 38% | 963 hPa | - | - | 0 W/m² | - |
| 1777297398 | 31.67° C | 37% | 963 hPa | - | - | 0 W/m² | - |
| 1777296775 | 31.67° C | 37% | 963 hPa | - | - | 0 W/m² | - |
| 1777296150 | 31.67° C | 36% | 963 hPa | - | - | 0 W/m² | - |
| 1777295526 | 32.22° C | 35% | 963 hPa | - | - | 0 W/m² | - |
| 1777294902 | 32.22° C | 36% | 962 hPa | - | - | 0 W/m² | - |
| 1777294278 | 32.78° C | 35% | 962 hPa | - | - | 0 W/m² | - |
* Rain since midnight (hover to see other rain measurements)
** Current wind speed in m/s (hover to see current wind gust speed)